TimeCST,TemperatureF,Dew PointF,Humidity,Sea Level PressureIn,VisibilityMPH,Wind Direction,Wind SpeedMPH,Gust SpeedMPH,PrecipitationIn,Events,Conditions,WindDirDegrees,DateUTC
12:15 AM,39.2,30.2,70,30.29,10.0,SSE,3.5,-,N/A,,Clear,160,2012-11-18 06:15:00
12:35 AM,41.0,30.2,65,30.29,10.0,SSE,4.6,-,N/A,,Clear,160,2012-11-18 06:35:00
12:55 AM,41.0,30.2,65,30.29,10.0,SSE,3.5,-,N/A,,Clear,150,2012-11-18 06:55:00
1:15 AM,41.0,30.2,65,30.29,10.0,SSE,3.5,-,N/A,,Clear,160,2012-11-18 07:15:00
1:35 AM,41.0,30.2,65,30.29,10.0,Calm,Calm,-,N/A,,Clear,0,2012-11-18 07:35:00
1:55 AM,39.2,30.2,70,30.29,10.0,Calm,Calm,-,N/A,,Clear,0,2012-11-18 07:55:00
2:15 AM,37.4,30.2,75,30.29,10.0,Calm,Calm,-,N/A,,Clear,0,2012-11-18 08:15:00
2:35 AM,39.2,30.2,70,30.28,10.0,Calm,Calm,-,N/A,,Clear,0,2012-11-18 08:35:00
2:55 AM,39.2,30.2,70,30.28,10.0,SSE,3.5,-,N/A,,Clear,150,2012-11-18 08:55:00
3:15 AM,37.4,30.2,75,30.27,10.0,Calm,Calm,-,N/A,,Clear,0,2012-11-18 09:15:00
3:35 AM,37.4,30.2,75,30.27,10.0,SE,4.6,-,N/A,,Clear,140,2012-11-18 09:35:00
3:55 AM,37.4,32.0,81,30.27,10.0,SE,5.8,-,N/A,,Clear,140,2012-11-18 09:55:00
4:15 AM,37.4,32.0,81,30.26,10.0,SSE,5.8,-,N/A,,Clear,150,2012-11-18 10:15:00
4:35 AM,37.4,32.0,81,30.26,10.0,Calm,Calm,-,N/A,,Clear,0,2012-11-18 10:35:00
4:55 AM,37.4,32.0,81,30.26,10.0,Calm,Calm,-,N/A,,Scattered Clouds,0,2012-11-18 10:55:00
5:15 AM,37.4,32.0,81,30.26,10.0,Calm,Calm,-,N/A,,Scattered Clouds,0,2012-11-18 11:15:00
5:35 AM,37.4,32.0,81,30.26,10.0,SSE,3.5,-,N/A,,Scattered Clouds,150,2012-11-18 11:35:00
5:55 AM,37.4,32.0,81,30.26,10.0,SSE,3.5,-,N/A,,Scattered Clouds,150,2012-11-18 11:55:00
6:15 AM,37.4,32.0,81,30.26,10.0,SSE,3.5,-,N/A,,Mostly Cloudy,150,2012-11-18 12:15:00
6:35 AM,37.4,32.0,81,30.26,10.0,SSE,3.5,-,N/A,,Mostly Cloudy,150,2012-11-18 12:35:00
6:55 AM,37.4,32.0,81,30.27,10.0,Calm,Calm,-,N/A,,Mostly Cloudy,0,2012-11-18 12:55:00
7:15 AM,39.2,32.0,75,30.27,10.0,SE,3.5,-,N/A,,Overcast,140,2012-11-18 13:15:00
7:35 AM,41.0,33.8,76,30.27,10.0,SE,4.6,-,N/A,,Overcast,130,2012-11-18 13:35:00
7:55 AM,41.0,33.8,76,30.27,10.0,Calm,Calm,-,N/A,,Overcast,0,2012-11-18 13:55:00
8:15 AM,41.0,33.8,76,30.27,10.0,Calm,Calm,-,N/A,,Mostly Cloudy,0,2012-11-18 14:15:00
8:35 AM,42.8,33.8,70,30.27,10.0,Calm,Calm,-,N/A,,Clear,0,2012-11-18 14:35:00
8:55 AM,42.8,33.8,70,30.27,10.0,South,6.9,-,N/A,,Clear,180,2012-11-18 14:55:00
9:15 AM,46.4,33.8,62,30.27,10.0,South,10.4,-,N/A,,Clear,180,2012-11-18 15:15:00
9:35 AM,48.2,33.8,58,30.28,10.0,South,10.4,-,N/A,,Clear,180,2012-11-18 15:35:00
9:55 AM,51.8,33.8,50,30.28,10.0,South,18.4,21.9,N/A,,Clear,180,2012-11-18 15:55:00
10:15 AM,51.8,32.0,47,30.28,10.0,South,16.1,23.0,N/A,,Scattered Clouds,190,2012-11-18 16:15:00
10:35 AM,53.6,33.8,47,30.28,10.0,South,17.3,-,N/A,,Overcast,190,2012-11-18 16:35:00
10:55 AM,53.6,33.8,47,30.27,10.0,South,18.4,24.2,N/A,,Overcast,190,2012-11-18 16:55:00
11:15 AM,55.4,33.8,44,30.26,10.0,South,20.7,26.5,N/A,,Mostly Cloudy,190,2012-11-18 17:15:00
11:35 AM,57.2,33.8,41,30.24,10.0,South,23.0,29.9,N/A,,Scattered Clouds,190,2012-11-18 17:35:00
11:55 AM,59.0,32.0,36,30.23,10.0,South,23.0,28.8,N/A,,Clear,180,2012-11-18 17:55:00
12:15 PM,59.0,33.8,39,30.21,10.0,South,24.2,31.1,N/A,,Clear,180,2012-11-18 18:15:00
12:35 PM,59.0,33.8,39,30.20,10.0,South,21.9,31.1,N/A,,Clear,180,2012-11-18 18:35:00
12:55 PM,59.0,33.8,39,30.20,10.0,South,18.4,-,N/A,,Clear,170,2012-11-18 18:55:00
1:15 PM,59.0,33.8,39,30.19,10.0,South,17.3,-,N/A,,Clear,180,2012-11-18 19:15:00
1:35 PM,59.0,35.6,42,30.18,10.0,SSE,17.3,25.3,N/A,,Clear,160,2012-11-18 19:35:00
1:55 PM,60.8,33.8,36,30.17,10.0,South,21.9,26.5,N/A,,Clear,170,2012-11-18 19:55:00
2:15 PM,60.8,33.8,36,30.17,10.0,SSE,17.3,24.2,N/A,,Clear,160,2012-11-18 20:15:00
2:35 PM,60.8,35.6,39,30.16,10.0,South,13.8,20.7,N/A,,Clear,170,2012-11-18 20:35:00
2:55 PM,60.8,33.8,36,30.16,10.0,SSE,18.4,-,N/A,,Clear,160,2012-11-18 20:55:00
3:15 PM,59.0,33.8,39,30.16,10.0,SSE,17.3,21.9,N/A,,Clear,160,2012-11-18 21:15:00
3:35 PM,57.2,35.6,44,30.16,10.0,SSE,12.7,-,N/A,,Clear,160,2012-11-18 21:35:00
3:55 PM,59.0,35.6,42,30.15,10.0,SSE,13.8,-,N/A,,Clear,160,2012-11-18 21:55:00
4:15 PM,57.2,35.6,44,30.15,10.0,SSE,11.5,20.7,N/A,,Clear,160,2012-11-18 22:15:00
4:35 PM,59.0,35.6,42,30.15,10.0,SSE,12.7,-,N/A,,Scattered Clouds,160,2012-11-18 22:35:00
4:55 PM,59.0,33.8,39,30.15,10.0,SSE,11.5,18.4,N/A,,Mostly Cloudy,160,2012-11-18 22:55:00
5:15 PM,57.2,33.8,41,30.15,10.0,SSE,15.0,-,N/A,,Overcast,160,2012-11-18 23:15:00
5:35 PM,57.2,35.6,44,30.15,10.0,SSE,13.8,18.4,N/A,,Overcast,160,2012-11-18 23:35:00
5:55 PM,57.2,35.6,44,30.16,10.0,SSE,13.8,-,N/A,,Overcast,160,2012-11-18 23:55:00
6:15 PM,57.2,35.6,44,30.16,10.0,SSE,15.0,-,N/A,,Mostly Cloudy,160,2012-11-19 00:15:00
6:35 PM,55.4,35.6,47,30.16,10.0,SSE,15.0,-,N/A,,Scattered Clouds,160,2012-11-19 00:35:00
6:55 PM,55.4,35.6,47,30.16,10.0,SSE,16.1,25.3,N/A,,Clear,160,2012-11-19 00:55:00
7:15 PM,55.4,35.6,47,30.16,10.0,SSE,15.0,21.9,N/A,,Clear,160,2012-11-19 01:15:00
7:35 PM,55.4,35.6,47,30.16,10.0,SSE,13.8,-,N/A,,Clear,160,2012-11-19 01:35:00
7:55 PM,55.4,35.6,47,30.16,10.0,South,16.1,-,N/A,,Clear,170,2012-11-19 01:55:00
8:15 PM,55.4,35.6,47,30.17,10.0,South,12.7,-,N/A,,Scattered Clouds,170,2012-11-19 02:15:00
8:35 PM,55.4,33.8,44,30.17,10.0,South,17.3,23.0,N/A,,Clear,170,2012-11-19 02:35:00
8:55 PM,55.4,33.8,44,30.16,10.0,South,17.3,23.0,N/A,,Clear,170,2012-11-19 02:55:00
9:15 PM,55.4,33.8,44,30.16,10.0,South,16.1,-,N/A,,Clear,170,2012-11-19 03:15:00
9:35 PM,55.4,33.8,44,30.16,10.0,South,15.0,23.0,N/A,,Clear,170,2012-11-19 03:35:00
9:55 PM,55.4,33.8,44,30.16,10.0,South,16.1,-,N/A,,Scattered Clouds,170,2012-11-19 03:55:00
10:15 PM,53.6,33.8,47,30.16,10.0,South,15.0,-,N/A,,Scattered Clouds,180,2012-11-19 04:15:00
10:35 PM,55.4,33.8,44,30.15,10.0,South,19.6,24.2,N/A,,Mostly Cloudy,180,2012-11-19 04:35:00
11:15 PM,55.4,33.8,44,30.15,10.0,South,17.3,24.2,N/A,,Overcast,190,2012-11-19 05:15:00
11:35 PM,55.4,35.6,47,30.15,10.0,South,18.4,-,N/A,,Light Drizzle,180,2012-11-19 05:35:00
11:55 PM,53.6,37.4,54,30.16,10.0,South,18.4,-,N/A,Rain,Light Rain,190,2012-11-19 05:55:00